MESHWX-1 Weather Reports


time (UTC)temp
C
wind
direction
speed
KPH
gust
KPH
rain 1hr
cm
rain 24hr
cm
rain mn
cm
humidity
%
barometer
mb
20260906051358 23 0.0 0.0 0.00 0.00 0.00 28 1002.9
20260906050958 23 0.0 0.0 0.00 0.00 0.00 28 1002.9
20260906044739 23 0.0 0.0 0.00 0.00 0.00 28 1002.9
20260906044336 23 0.0 0.0 0.00 0.00 0.00 28 1002.9
20260906043958 23 0.0 0.0 0.00 0.00 0.00 28 1002.6
20260906043557 23 0.0 0.0 0.00 0.00 0.00 28 1002.6
20260906040847 23 0.0 0.0 0.00 0.00 0.00 28 1002.6
20260906040458 24 0.0 0.0 0.00 0.00 0.00 30 1002.1
20260906035957 24 0.0 0.0 0.00 0.00 0.00 30 1002.1
20260906033911 24 0.0 0.0 0.00 0.00 0.00 30 1002.1
20260906033341 24 0.0 0.0 0.00 0.00 0.00 30 1002.1
20260906032858 24 0.0 0.0 0.00 0.00 0.00 35 1001.6
20260906032457 24 0.0 0.0 0.00 0.00 0.00 35 1001.6
20260906025911 24 0.0 0.0 0.00 0.00 0.00 35 1001.6
20260906025357 24 0.0 0.0 0.00 0.00 0.00 37 1001.2
20260906024957 24 0.0 0.0 0.00 0.00 0.00 37 1001.2
20260906023044 24 0.0 0.0 0.00 0.00 0.00 37 1001.2
20260906022517 24 0.0 0.0 0.00 0.00 0.00 37 1001.2
20260906021957 25 0.0 0.0 0.00 0.00 0.00 38 1000.8
20260906021557 25 0.0 0.0 0.00 0.00 0.00 38 1000.8
20260906015253 25 0.0 0.0 0.00 0.00 0.00 38 1000.8
20260906014657 25 0.0 0.0 0.00 0.00 0.00 39 1000.4
20260906014256 25 0.0 0.0 0.00 0.00 0.00 39 1000.4
20260906012552 25 0.0 0.0 0.00 0.00 0.00 39 1000.4
20260906011858 25 0.0 0.0 0.00 0.00 0.00 39 1000.4
20260906011257 25 0.0 0.0 0.00 0.00 0.00 39 1000.1
20260906010856 25 0.0 0.0 0.00 0.00 0.00 39 1000.1
20260906004504 25 0.0 0.0 0.00 0.00 0.00 39 1000.1
20260906003857 25 0.0 0.0 0.00 0.00 0.00 41 999.7
20260906003456 25 0.0 0.0 0.00 0.00 0.00 41 999.7
20260906001835 25 0.0 0.0 0.00 0.00 0.00 41 999.7
20260906001146 25 0.0 0.0 0.00 0.00 0.00 41 999.7
20260906000457 26 0.0 0.0 0.00 0.00 0.00 39 999.2
20260906000056 26 0.0 0.0 0.00 0.00 0.00 39 999.2
20260905233810 26 0.0 0.0 0.00 0.00 0.00 39 999.2
20260905233057 26 0.0 0.0 0.00 0.00 0.00 40 999.1
20260905232656 26 0.0 0.0 0.00 0.00 0.00 40 999.1
20260905231043 26 0.0 0.0 0.00 0.00 0.00 40 999.1
20260905230434 26 0.0 0.0 0.00 0.00 0.00 40 999.1
20260905225756 26 0.0 0.0 0.00 0.00 0.00 40 999.1
20260905225356 26 0.0 0.0 0.00 0.00 0.00 40 999.1
20260905223134 26 0.0 0.0 0.00 0.00 0.00 40 999.1
20260905222356 25 0.0 0.0 0.00 0.00 0.00 40 998.7
20260905221856 25 0.0 0.0 0.00 0.00 0.00 40 998.7
20260905220441 25 0.0 0.0 0.00 0.00 0.00 40 998.7
20260905215721 25 0.0 0.0 0.00 0.00 0.00 40 998.7
20260905214856 25 0.0 0.0 0.00 0.00 0.00 37 998.4
20260905214355 25 0.0 0.0 0.00 0.00 0.00 37 998.4
20260905212309 25 0.0 0.0 0.00 0.00 0.00 37 998.4
20260905211457 25 0.0 0.0 0.00 0.00 0.00 38 998.0
20260905210955 25 0.0 0.0 0.00 0.00 0.00 38 998.0
20260905205613 25 0.0 0.0 0.00 0.00 0.00 38 998.0
20260905204915 25 0.0 0.0 0.00 0.00 0.00 38 998.0
20260905204056 25 0.0 0.0 0.00 0.00 0.00 36 997.5
20260905203555 25 0.0 0.0 0.00 0.00 0.00 36 997.5
20260905201539 25 0.0 0.0 0.00 0.00 0.00 36 997.5
20260905200656 26 0.0 0.0 0.00 0.00 0.00 34 997.2
20260905200255 26 0.0 0.0 0.00 0.00 0.00 34 997.2
20260905194821 26 0.0 0.0 0.00 0.00 0.00 34 997.2
20260905194239 26 0.0 0.0 0.00 0.00 0.00 34 997.2
20260905193355 27 0.0 0.0 0.00 0.00 0.00 30 997.0
20260905192955 27 0.0 0.0 0.00 0.00 0.00 30 997.0
20260905190844 27 0.0 0.0 0.00 0.00 0.00 30 997.0
20260905190056 29 0.0 0.0 0.00 0.00 0.00 27 996.8
20260905185555 29 0.0 0.0 0.00 0.00 0.00 27 996.8
20260905184105 29 0.0 0.0 0.00 0.00 0.00 27 996.8
20260905183432 29 0.0 0.0 0.00 0.00 0.00 27 996.8
20260905182655 29 0.0 0.0 0.00 0.00 0.00 23 996.4
20260905182154 29 0.0 0.0 0.00 0.00 0.00 23 996.4
20260905180114 29 0.0 0.0 0.00 0.00 0.00 23 996.4
20260905175255 30 0.0 0.0 0.00 0.00 0.00 20 996.1
20260905174854 30 0.0 0.0 0.00 0.00 0.00 20 996.1
20260905173429 30 0.0 0.0 0.00 0.00 0.00 20 996.1
20260905172814 30 0.0 0.0 0.00 0.00 0.00 20 996.1
20260905171955 33 0.0 0.0 0.00 0.00 0.00 18 995.9
20260905171554 33 0.0 0.0 0.00 0.00 0.00 18 995.9
20260905165626 33 0.0 0.0 0.00 0.00 0.00 18 995.9
20260905164755 37 0.0 0.0 0.00 0.00 0.00 16 995.7
20260905164354 37 0.0 0.0 0.00 0.00 0.00 16 995.7
20260905163050 37 0.0 0.0 0.00 0.00 0.00 16 995.7
20260905162438 37 0.0 0.0 0.00 0.00 0.00 16 995.7
20260905161454 39 0.0 0.0 0.00 0.00 0.00 15 995.8
20260905161054 39 0.0 0.0 0.00 0.00 0.00 15 995.8
20260905155155 39 0.0 0.0 0.00 0.00 0.00 15 995.8
20260905154154 41 0.0 0.0 0.00 0.00 0.00 14 995.9
20260905153754 41 0.0 0.0 0.00 0.00 0.00 14 995.9
20260905152449 41 0.0 0.0 0.00 0.00 0.00 14 995.9
20260905151949 41 0.0 0.0 0.00 0.00 0.00 14 995.9
20260905150953 41 0.0 0.0 0.00 0.00 0.00 14 996.1
20260905150553 41 0.0 0.0 0.00 0.00 0.00 14 996.1
20260905144819 41 0.0 0.0 0.00 0.00 0.00 14 996.1
20260905143653 42 0.0 0.0 0.00 0.00 0.00 14 996.1
20260905143353 42 0.0 0.0 0.00 0.00 0.00 14 996.1
20260905142112 42 0.0 0.0 0.00 0.00 0.00 14 996.1
20260905141631 42 0.0 0.0 0.00 0.00 0.00 14 996.1
20260905140553 42 0.0 0.0 0.00 0.00 0.00 14 996.4
20260905140153 42 0.0 0.0 0.00 0.00 0.00 14 996.4
20260905134555 42 0.0 0.0 0.00 0.00 0.00 14 996.4
20260905133453 42 0.0 0.0 0.00 0.00 0.00 14 996.7
20260905133053 42 0.0 0.0 0.00 0.00 0.00 14 996.7
20260905131959 42 0.0 0.0 0.00 0.00 0.00 14 996.7
20260905131406 42 0.0 0.0 0.00 0.00 0.00 14 996.7
20260905130253 41 0.0 0.0 0.00 0.00 0.00 14 997.0
20260905125752 41 0.0 0.0 0.00 0.00 0.00 14 997.0
20260905124200 41 0.0 0.0 0.00 0.00 0.00 14 997.0
20260905122953 41 0.0 0.0 0.00 0.00 0.00 15 997.5
20260905122452 41 0.0 0.0 0.00 0.00 0.00 15 997.5
20260905121507 41 0.0 0.0 0.00 0.00 0.00 15 997.5
20260905120936 41 0.0 0.0 0.00 0.00 0.00 15 997.5
20260905115653 41 0.0 0.0 0.00 0.00 0.00 16 997.9
20260905115152 41 0.0 0.0 0.00 0.00 0.00 16 997.9
20260905113712 41 0.0 0.0 0.00 0.00 0.00 16 997.9
20260905112352 37 0.0 0.0 0.00 0.00 0.00 18 998.1
20260905111752 37 0.0 0.0 0.00 0.00 0.00 18 998.1
20260905111015 37 0.0 0.0 0.00 0.00 0.00 18 998.1
20260905110354 37 0.0 0.0 0.00 0.00 0.00 18 998.1
20260905104952 36 0.0 0.0 0.00 0.00 0.00 19 998.4
20260905104451 36 0.0 0.0 0.00 0.00 0.00 19 998.4
20260905103053 36 0.0 0.0 0.00 0.00 0.00 19 998.4
20260905101552 36 0.0 0.0 0.00 0.00 0.00 21 998.7
20260905101051 36 0.0 0.0 0.00 0.00 0.00 21 998.7
20260905100412 36 0.0 0.0 0.00 0.00 0.00 21 998.7
20260905095641 36 0.0 0.0 0.00 0.00 0.00 21 998.7
20260905094152 35 0.0 0.0 0.00 0.00 0.00 22 998.9
20260905093651 35 0.0 0.0 0.00 0.00 0.00 22 998.9
20260905092306 35 0.0 0.0 0.00 0.00 0.00 22 998.9
20260905090852 34 0.0 0.0 0.00 0.00 0.00 23 999.1
20260905090251 34 0.0 0.0 0.00 0.00 0.00 23 999.1
20260905085656 34 0.0 0.0 0.00 0.00 0.00 23 999.1
20260905084929 34 0.0 0.0 0.00 0.00 0.00 23 999.1
20260905083451 33 0.0 0.0 0.00 0.00 0.00 23 999.3
20260905082850 33 0.0 0.0 0.00 0.00 0.00 23 999.3
20260905081629 33 0.0 0.0 0.00 0.00 0.00 23 999.3
20260905080151 32 0.0 0.0 0.00 0.00 0.00 25 999.4
20260905075550 32 0.0 0.0 0.00 0.00 0.00 25 999.4
20260905075020 32 0.0 0.0 0.00 0.00 0.00 25 999.4
20260905074329 32 0.0 0.0 0.00 0.00 0.00 25 999.4
20260905072751 31 0.0 0.0 0.00 0.00 0.00 28 999.6
20260905072150 31 0.0 0.0 0.00 0.00 0.00 28 999.6
20260905070952 31 0.0 0.0 0.00 0.00 0.00 28 999.6
20260905065351 28 0.0 0.0 0.00 0.00 0.00 33 999.5
20260905064750 28 0.0 0.0 0.00 0.00 0.00 33 999.5
20260905064308 28 0.0 0.0 0.00 0.00 0.00 33 999.5
20260905063540 28 0.0 0.0 0.00 0.00 0.00 33 999.5
20260905061851 26 0.0 0.0 0.00 0.00 0.00 38 999.7
20260905061250 26 0.0 0.0 0.00 0.00 0.00 38 999.7
20260905060110 26 0.0 0.0 0.00 0.00 0.00 38 999.7
20260905054450 23 0.0 0.0 0.00 0.00 0.00 44 999.6
20260905053850 23 0.0 0.0 0.00 0.00 0.00 44 999.6
20260905053405 23 0.0 0.0 0.00 0.00 0.00 44 999.6
20260905052716 23 0.0 0.0 0.00 0.00 0.00 44 999.6